Regional Weather Roundup
Issued by NWS

Home | Current Version | Previous Version | Text Only | Print | Product List | Glossary On
Versions: 1 2 3 4 5 6 7 8 9 10 11 12 13 14 15 16 17 18 19 20 21 22 23 24 25 26 27 28 29 30 31 32 33 34 35 36 37 38 39 40 41 42 43 44 45 46 47 48 49 50
000
ASUS43 KTOP 211059
RWRKS

WEATHER ROUNDUP FOR KANSAS
NATIONAL WEATHER SERVICE GOODLAND KS
600 AM CDT SUN SEP 21 2014

NOTE:  "FAIR" INDICATES FEW OR NO CLOUDS BELOW 12,000 FEET WITH NO
SIGNIFICANT WEATHER AND/OR OBSTRUCTIONS TO VISIBILITY.

KSZ001>006-013>018-027>032-041>047-211200-
NORTHWEST KANSAS

CITY           SKY/WX    TMP DP  RH WIND       PRES   REMARKS
GOODLAND       CLEAR     51  45  79 N3        30.30S
HAYS           PTCLDY    57  45  62 N9        30.21R
HILL CITY      PTCLDY    55  47  74 NW3       30.23R
RUSSELL        PTCLDY    58  50  75 N7        30.18R
$$

KSZ061>065-074>080-084>089-211200-
SOUTHWEST KANSAS

CITY           SKY/WX    TMP DP  RH WIND       PRES   REMARKS
DODGE CITY     CLEAR     61  52  72 NE13      30.19R
ELKHART          N/A     64  58  81 N5          N/A
GARDEN CITY    CLEAR     61  47  59 NE16      30.21R
GREAT BEND     CLEAR     61  52  72 NE7       30.19R
LIBERAL        CLEAR     70  59  68 NE16G22   30.18R
$$

KSZ066>073-081>083-090>101-211200-
SOUTHEAST KANSAS

CITY           SKY/WX    TMP DP  RH WIND       PRES   REMARKS
CHANUTE        CLEAR     69  62  78 N12       30.08R
HUTCHINSON     MOCLDY    65  58  78 N7        30.14R
NEWTON         PTCLDY    63  55  77 NE9       30.16S
PARSONS        PTCLDY    72  70  93 N7        30.07R
WICHITA INTL   PTCLDY    70  57  63 NE14      30.11R
WICHITA JABRA  CLEAR     67  58  72 NE14      30.11R
WINFIELD       PTCLDY    71  69  93 N7        30.09R
$$

KSZ007>012-019>026-033>040-048>060-102>105-211200-
NORTHEAST KANSAS

CITY           SKY/WX    TMP DP  RH WIND       PRES   REMARKS
CONCORDIA      CLEAR     58  51  78 CALM      30.16R
EMPORIA        CLEAR     61  58  90 N6        30.12R
LAWRENCE       CLEAR     53  52  96 N5        30.11R
MANHATTAN      CLEAR     56  54  93 CALM      30.14R
OLATHE IND     CLEAR     57  53  86 N5        30.11R
OLATHE EXE     CLEAR     59  51  75 CALM      30.10R
SALINA         CLEAR     61  54  77 NW7       30.16R
TOPEKA BILLARD CLEAR     58  56  93 NW6       30.12R
TOPEKA FORBES  CLEAR     56  53  90 NW5       30.12R
$$


USA.gov is the U.S. government's official web portal to all federal, state and local government web resources and services.